Flag for Germany Weather past 2 weeks in Wuppertal, North Rhine-Westphalia, Germany

Now
41 °F

Sprinkles. Scattered clouds.


Feels Like: 33 °F
Forecast: 30 / 36 °F
Wind: 15 mph from Southwest

Location: Duesseldorf

Current Time: Jan 29, 2015 at 4:09:25 PM

Latest Report: Jan 29, 2015 at 3:20 PM


Visibility: N/A

Pressure: 29.00 "Hg

Humidity: 81%

Dew point: 36 °F

Location of WuppertalLocation

Historic Weather in Wuppertal — Graph

°F

Wuppertal temperature yesterday

Maximum temperature yesterday: 45 °F (at 11:50 AM)
Minimum temperature yesterday: 36 °F (at 12:20 AM)
Average temperature yesterday: 40 °F

Past Weeks' High & Low Weather Summary

 TemperatureHumidityPressure
High52 °F (Jan 15, 4:50 PM)100% (Jan 17, 8:20 AM)30.42 "Hg (Jan 17, 8:20 AM)
Low25 °F (Jan 25, 2:20 AM)52% (Jan 21, 1:20 PM)29.03 "Hg (Jan 29, 2:50 PM)
Average37 °F83%29.95 "Hg
* Reported Jan 14 2:20 PM — Jan 29 2:50 PM, Wuppertal, Weather by CustomWeather, © 2014

Note: Actual official high and low records may vary slightly from our data, if they occured in-between our weather recording intervals... More about our weather records

Advertising

Wuppertal weather history for previous 24 hours

 ConditionsComfort  
Time TempWeatherWind HumidityBarometerVisibility
2:50 PM
Jan 29
39 °FScattered clouds.13 mph87%29.03 "HgN/A
2:20 PM39 °FSprinkles. Scattered clouds.18 mph81%29.06 "HgN/A
1:50 PM39 °FSprinkles. Broken clouds.22 mph81%29.09 "Hg5 mi
1:20 PM41 °FSprinkles. Partly sunny.20 mph70%29.09 "HgN/A
12:50 PM41 °FSprinkles. Partly sunny.21 mph70%29.12 "HgN/A
12:20 PM41 °FScattered clouds.21 mph70%29.15 "HgN/A
11:50 AM39 °FScattered clouds.20 mph75%29.18 "HgN/A
11:20 AM39 °FScattered clouds.16 mph75%29.18 "HgN/A
10:50 AM39 °FPartly sunny.18 mph75%29.21 "HgN/A
10:20 AM39 °FSprinkles. Partly sunny.21 mph75%29.24 "HgN/A
9:50 AM37 °FPartly sunny.17 mph81%29.24 "HgN/A
9:20 AM37 °FPartly sunny.16 mph75%29.27 "HgN/A
8:50 AM37 °FPartly sunny.16 mph81%29.27 "HgN/A
8:20 AM37 °FPartly sunny.18 mph75%29.27 "HgN/A
7:50 AM36 °FPassing clouds.17 mph81%29.30 "HgN/A
7:20 AM36 °FPassing clouds.16 mph81%29.30 "HgN/A
6:50 AM36 °FPassing clouds.18 mph81%29.30 "HgN/A
6:20 AM36 °FPassing clouds.17 mph81%29.33 "HgN/A
5:50 AM36 °FPassing clouds.17 mph81%29.33 "HgN/A
5:20 AM36 °FClear.16 mph75%29.36 "Hg10 mi
4:50 AM36 °FClear.16 mph75%29.39 "Hg10 mi
4:20 AM34 °FClear.16 mph81%29.39 "Hg10 mi
3:50 AM34 °FClear.16 mph81%29.42 "Hg10 mi
3:20 AM36 °FClear.17 mph75%29.42 "Hg10 mi
2:50 AM36 °FClear.15 mph75%29.42 "Hg10 mi
2:20 AM36 °FClear.16 mph81%29.45 "Hg10 mi
1:50 AM36 °FClear.16 mph81%29.45 "Hg10 mi
1:20 AM36 °FPassing clouds.16 mph87%29.45 "HgN/A
12:50 AM36 °FPassing clouds.17 mph81%29.45 "HgN/A
12:20 AM36 °FPassing clouds.18 mph81%29.45 "HgN/A
11:50 PM
Jan 28
37 °FPassing clouds.15 mph81%29.45 "HgN/A
11:20 PM37 °FClear.16 mph81%29.45 "Hg10 mi
10:20 PM37 °FPassing clouds.14 mph81%29.47 "HgN/A
9:50 PM37 °FPassing clouds.16 mph87%29.47 "HgN/A
9:20 PM37 °FPassing clouds.15 mph87%29.47 "HgN/A
8:50 PM37 °FPassing clouds.14 mph87%29.47 "HgN/A
8:20 PM37 °FPassing clouds.13 mph93%29.47 "HgN/A
7:50 PM37 °FPassing clouds.10 mph93%29.47 "HgN/A
7:20 PM37 °FPartly cloudy.10 mph93%29.47 "HgN/A
6:50 PM39 °FLight rain. Mostly cloudy.22 mph81%29.47 "HgN/A
6:20 PM43 °FRain. Overcast.24 mph93%29.42 "Hg4 mi
5:50 PM45 °FLight rain. Overcast.21 mph87%29.39 "HgN/A
5:20 PM43 °FDrizzle. Overcast.23 mph93%29.42 "HgN/A
4:50 PM43 °FDrizzle. Cloudy.25 mph87%29.45 "HgN/A
4:20 PM43 °FLight rain. More clouds than sun.17 mph87%29.47 "HgN/A
Weather by CustomWeather, © 2014

See weather overviewHow to use our weather pages